Weather Roundup
Issued by NWS

Home | Current Version | Previous Version | Graphics & Text | Print | Product List | Glossary Off
Versions: 1 2 3 4 5 6 7 8 9 10 11 12 13 14 15 16 17 18 19 20 21 22 23 24 25 26 27 28 29 30 31 32 33 34 35 36 37 38 39 40 41 42 43 44 45 46 47 48 49 50

000
NZUS93 KARX 250359
HRRWXR

CURRENT HOURLY OBSERVATIONS ACROSS
MUCH OF THE UPPER MISSISSIPPI VALLEY
NATIONAL WEATHER SERVICE LA CROSSE WI
1100 PM CDT TUE APR 24 2018


...SOUTHEAST MINNESOTA...


CITY           SKY/WX    TMP DP  RH WIND       PRES   REMARKS
ROCHESTER      FAIR      44  36  73 N8        30.20R
ROCHESTER/MAYO FAIR      48  36  64 N3        30.20S
WINONA         FAIR      48  36  61 N3        30.17S
AUSTIN         FAIR      45  39  81 N6        30.20R
ALBERT LEA     CLOUDY    48  37  66 N9        30.20S
DODGE CENTER   FAIR      43  36  75 N6        30.21R
PRESTON        FAIR      46  36  66 N10       30.19R
OWATONNA       FAIR      41  34  75 NW3       30.22R
FARIBAULT      NOT AVBL
$$

...ELSEWHERE IN MINNESOTA...


CITY           SKY/WX    TMP DP  RH WIND       PRES   REMARKS
MINNEAPOLIS    FAIR      49  26  41 N9        30.22S
INTNL FALLS    FAIR      27  22  81 CALM      30.30S
DULUTH         FAIR      37  23  56 N10       30.26R WCI  30
RED WING       FAIR      39  30  70 NW5       30.20S
REDWOOD FALLS  CLEAR     43  33  68 NW9       30.26S
MANKATO        FAIR      44  35  70 NW5       30.24R
WORTHINGTON    CLOUDY    40  35  83 N15       30.26S WCI  32
FAIRMONT       CLOUDY    44  39  82 NW9       30.24S
$$

...SOUTHWEST WISCONSIN...


CITY           SKY/WX    TMP DP  RH WIND       PRES   REMARKS
LA CROSSE      MOCLDY    52  36  54 N10       30.18R
PRAIRIE DU CHI FAIR      59  31  34 N14G23    30.10R
BOSCOBEL       CLOUDY    58  31  35 NE15G25   30.12R
LONE ROCK      NOT AVBL
PLATTEVILLE    CLOUDY    60  41  50 N10       30.05S
FORT MC COY    CLOUDY    50  37  60 N5        30.18R
MAUSTON-NEW LI CLOUDY    52  32  46 N8        30.14R
VIROQUA        FAIR      49  36  60 N15       30.14R
WIS DELLS      CLOUDY    56  32  40 NE14      30.10R
$$

...ELSEWHERE IN WISCONSIN...


CITY           SKY/WX    TMP DP  RH WIND       PRES   REMARKS
MILWAUKEE      FAIR      44  33  65 N21G31    30.07R
MADISON        CLOUDY    57  44  62 NE7       30.06R
GREEN BAY      CLOUDY    44  31  60 NE15      30.14R
EAU CLAIRE     NOT AVBL
BLACK RVR FLS  CLOUDY    49  33  55 N7        30.18R
MEDFORD        FAIR      36  34  92 N5        30.17S WCI  32
WAUSAU         CLOUDY    42  39  89 N6        30.14S
WIS RAPIDS     CLOUDY    47  34  60 NE9       30.16R
MARSHFIELD     MOCLDY    43  37  79 N9        30.15S
RICE LAKE      FAIR      36  33  88 N5        30.22S WCI  32
$$

...NORTHEAST IOWA...


CITY           SKY/WX    TMP DP  RH WIND       PRES   REMARKS
WATERLOO       FAIR      52  39  61 N20       30.13R
DUBUQUE        CLOUDY    61  38  42 N13       30.06R
DECORAH        FAIR      52  36  54 N12       30.14R
MASON CITY     CLOUDY    47  41  80 N14       30.20R
CHARLES CITY   FAIR      48  39  71 N13       30.17R
OELWEIN        FAIR      54  37  54 N17G24    30.12R
$$

...ELSEWHERE IN IOWA...


CITY           SKY/WX    TMP DP  RH WIND       PRES   REMARKS
DES MOINES     CLOUDY    57  41  55 N16G23    30.16R
IOWA CITY      FAIR      64  41  42 N10       30.07R
FORT DODGE     CLOUDY    49  44  83 N9        30.21S
MARSHALLTOWN   CLOUDY    55  41  59 N18G29    30.14R
CEDAR RAPIDS   CLOUDY    60  43  53 N15       30.07R
$$

...NORTHERN ILLINOIS...


CITY           SKY/WX    TMP DP  RH WIND       PRES   REMARKS
CHICAGO-OHARE  FAIR      48  44  86 NE10      30.01F
CHICAGO-MIDWAY MOCLDY    50  46  86 N7        30.01S
MOLINE         CLOUDY    65  38  36 NW10      30.00S
ROCKFORD       MOCLDY    56  45  66 NE3       30.03R
PEORIA         FAIR      59  31  34 CALM      30.00R
$$

NOTE: "FAIR" INDICATES FEW OR NO CLOUDS BELOW 12,000 FEET WITH NO
SIGNIFICANT WEATHER AND/OR OBSTRUCTIONS TO VISIBILITY. WIND
SPEEDS ARE IN MILES-PER-HOUR.




USA.gov is the U.S. government's official web portal to all federal, state and local government web resources and services.